SCP
0 0 0 0 1 1 1 1 1 1 2 2 3 3 3 2 2 2 1 1 1 1 1 1 1 1 0 0 0 0 0 0 0 0 0 0 0 0 0 0 0 0 0
0 0 0 0 1 1 1 1 1 1 2 3 3 3 3 3 2 2 1 1 1 1 1 1 1 1 0 0 0 0 0 0 0 0 0 0 0 0 0 0 0 0 0
0 0 0 0 1 1 1 1 1 2 2 3 4 4 4 3 3 2 2 1 1 1 1 1 1 1 0 0 0 0 0 0 0 0 0 0 0 0 0 0 0 0 0
0 0 0 0 0 1 1 1 1 1 2 2 3 4 4 3 3 2 2 1 1 1 1 1 1 1 0 0 0 0 0 0 0 0 0 0 0 0 0 0 0 0 0
0 0 0 0 0 0 0 1 1 1 2 2 3 3 3 3 2 2 1 1 1 1 1 1 1 1 0 0 0 0 0 0 0 0 0 0 0 0 0 0 0 0 0
0 0 0 0 0 0 0 1 1 1 1 2 2 2 3 2 2 1 1 1 1 1 1 1 1 1 0 0 0 0 0 0 0 0 0 0 0 0 0 0 0 0 0
0 0 0 0 0 0 0 0 1 1 1 1 1 2 2 1 1 1 1 0 0 0 0 0 0 0 0 0 0 0 0 0 0 0 0 0 0 0 0 0 0 0 0
0 0 0 0 0 0 0 0 0 0 1 1 1 1 1 1 0 0 0 0 0 0 0 0 0 0 0 0 0 0 0 0 0 0 0 0 0 0 0 0 0 0 0
0 0 0 0 0 0 0 0 0 0 0 0 0 0 0 0 0 0 0 0 0 0 0 0 0 0 0 0 0 0 0 0 0 0 0 0 0 0 0 0 0 0 0
0 0 0 0 0 0 0 0 0 0 0 0 0 0 0 0 0 0 0 0 0 0 0 0 0 0 0 0 0 0 0 0 0 0 0 0 0 0 0 0 0 0 0
0 0 0 0 0 0 0 0 0 0 0 0 0 0 0 0 0 0 0 0 0 0 0 0 0 0 0 0 0 0 0 0 0 0 0 0 0 0 0 0 0 0 0
0 0 0 0 0 0 0 0 0 0 0 0 0 0 0 0 0 0 0 0 0 0 0 0 0 0 0 0 0 0 0 0 0 0 0 0 0 0 0 0 0 0 0
0 0 0 0 0 0 0 0 0 0 0 0 0 0 0 0 0 0 0 0 0 0 0 0 0 0 0 0 0 0 0 0 0 0 0 0 0 0 0 0 0 0 0
0 0 0 0 0 0 0 0 0 0 0 0 0 0 0 0 0 0 0 0 0 0 0 0 0 0 0 0 0 0 0 0 0 0 0 0 0 0 0 0 0 0 0
0 0 0 0 0 0 0 0 0 0 0 0 0 0 0 0 0 0 0 0 0 0 0 0 0 0 0 0 0 0 0 0 0 0 0 0 0 0 0 0 0 0 0
0 0 0 0 0 0 0 0 0 0 0 0 0 0 0 0 0 0 0 0 0 0 0 0 0 0 0 0 0 0 0 0 0 0 0 0 0 0 0 0 0 0 0
0 0 0 0 0 0 0 0 0 0 0 0 0 0 0 0 0 0 0 0 0 0 0 0 0 0 0 0 0 0 0 0 0 0 0 0 0 0 0 0 0 0 0
0 0 0 0 0 0 0 0 0 0 0 0 0 0 0 0 0 0 0 0 0 0 0 0 0 0 0 0 0 0 0 0 0 0 0 0 0 0 0 0 0 0 0
0 0 0 0 0 0 0 0 0 0 0 0 0 0 0 0 0 0 0 0 0 0 0 0 0 0 0 0 0 0 0 0 0 0 0 0 0 0 0 0 0 0 0
0 0 0 0 0 0 0 0 0 0 0 0 0 0 0 0 0 0 0 0 0 0 0 0 0 0 0 0 0 0 0 0 0 0 0 0 0 0 0 0 0 0 0
0 0 0 0 0 0 0 0 0 0 0 0 0 0 0 0 0 0 0 0 0 0 0 0 0 0 0 0 0 0 0 0 0 0 0 0 0 0 0 0 0 0 0
0 0 0 0 0 0 0 0 0 0 0 0 0 0 0 0 0 0 0 0 0 0 0 0 0 0 0 0 0 0 0 0 0 0 0 0 0 0 0 0 0 0 0
0 0 0 0 0 0 0 0 0 0 0 0 0 0 0 0 0 0 0 0 0 0 0 0 0 0 0 0 0 0 0 0 0 0 0 0 0 0 0 0 0 0 0
0 0 0 0 0 0 0 0 0 0 0 0 0 0 0 0 0 0 0 0 0 0 0 0 0 0 0 0 0 0 0 0 0 0 0 0 0 0 0 0 0 0 0
0 0 0 0 0 0 0 0 0 0 0 0 0 0 0 0 0 0 0 0 0 0 0 0 0 0 0 0 0 0 0 0 0 0 0 0 0 0 0 0 0 0 0
0 0 0 0 0 0 0 0 0 0 0 0 0 0 0 0 0 0 0 0 0 0 0 0 0 0 0 0 0 0 0 0 0 0 0 0 0 0 0 0 0 0 0
Wind_Speed
11 10 10 10 10 10 10 8 5 3 4 4 4 4 4 3 4 4 4 4 2 3 3 3 2 2 2 1 1 0 0 0 0 1 2 2 2 3 3 2 2 3 5
11 11 10 10 11 10 11 11 9 6 3 3 6 5 5 4 3 3 4 4 4 3 2 3 2 2 2 1 2 2 1 1 1 1 1 1 3 3 3 3 3 2 4
12 12 11 11 10 11 11 9 10 8 5 3 3 4 4 3 3 3 3 4 4 3 2 2 2 2 2 3 4 4 4 3 3 2 3 3 3 2 3 4 4 4 3
12 12 11 11 11 11 11 10 10 9 7 2 4 5 5 5 4 4 4 4 3 2 2 1 1 1 2 4 5 6 5 5 4 3 3 4 3 2 2 2 2 4 4
14 13 12 12 12 12 11 10 9 9 8 4 0 3 4 4 4 4 5 4 3 2 2 2 1 2 2 4 5 5 5 5 5 4 3 4 3 3 2 2 2 1 2
15 14 13 11 11 11 10 10 9 9 8 5 3 4 7 7 7 6 5 4 2 1 1 1 2 3 3 4 5 5 5 5 5 4 4 3 3 3 3 3 3 2 2
14 14 14 12 11 11 11 10 10 9 8 7 5 5 7 7 7 6 5 5 3 1 2 2 2 3 4 4 4 4 4 5 5 5 4 3 3 2 2 2 3 3 2
14 14 13 11 10 11 10 10 9 9 9 8 7 6 6 5 4 4 3 3 3 3 4 4 4 4 4 4 3 2 2 3 3 4 3 3 3 3 3 3 2 2 2
15 14 12 11 10 10 10 10 9 8 8 7 6 6 6 5 4 3 2 1 2 3 4 4 4 4 3 2 1 2 2 2 1 1 2 2 2 2 2 3 3 3 3
14 13 11 11 10 9 9 9 8 7 6 6 5 5 5 4 3 2 2 1 1 1 2 3 3 4 3 3 2 1 1 1 1 1 2 2 1 1 2 2 2 3 3
12 11 11 10 10 10 9 9 8 8 7 6 5 4 4 4 3 2 1 1 1 2 3 3 2 2 3 3 3 2 2 1 1 2 2 2 2 2 2 2 2 2 3
11 10 10 10 10 10 10 10 9 9 8 7 6 6 5 4 3 2 2 2 2 3 3 2 1 1 2 2 2 2 3 2 2 2 2 2 1 2 2 2 3 2 3
10 10 9 9 8 8 8 9 9 8 7 7 6 6 5 5 4 3 3 3 3 2 1 0 1 2 1 1 1 2 2 2 2 2 2 2 2 1 2 2 2 2 2
7 7 6 6 6 7 7 7 7 7 7 6 6 6 5 5 4 4 4 4 4 4 4 2 1 1 1 0 0 1 1 1 1 1 1 1 2 2 1 0 0 1 1
8 7 6 6 5 6 6 6 5 6 7 7 7 7 6 5 5 6 6 6 6 7 6 5 4 4 3 5 5 4 3 2 1 0 2 4 6 5 3 2 2 1 0
9 9 8 7 6 5 5 5 6 6 7 7 8 7 7 7 7 7 7 7 6 7 7 7 6 6 6 9 9 6 5 4 2 1 1 5 5 5 4 3 3 2 2
9 9 8 7 7 6 5 5 6 7 7 7 7 8 8 8 8 9 8 7 7 7 7 7 7 6 7 9 9 8 5 5 4 3 1 1 3 4 3 4 4 2 2
8 7 7 7 7 6 6 6 6 7 7 7 7 7 8 8 8 8 8 7 6 6 6 6 6 5 7 10 9 8 4 4 4 3 2 1 3 3 3 1 1 3 3
6 6 5 5 6 6 6 6 7 7 6 6 7 7 7 7 7 7 7 6 6 5 5 5 5 5 6 10 10 8 3 3 3 2 4 4 5 6 6 3 2 2 1
5 5 5 6 6 6 6 6 7 7 7 6 6 6 5 6 6 6 6 5 5 5 4 4 5 5 6 9 11 10 3 3 2 2 4 7 6 6 6 4 3 3 2
5 5 5 4 4 5 5 6 6 5 5 5 5 5 5 5 5 5 5 5 5 5 5 5 5 5 6 8 10 10 4 3 2 2 3 3 5 6 5 5 4 3 3
5 5 5 4 3 4 4 5 4 3 3 3 4 4 5 6 6 5 5 6 6 5 5 5 5 5 5 7 9 10 8 7 4 4 3 3 5 6 6 4 4 5 4
5 4 5 4 3 3 3 3 2 2 2 2 3 4 4 5 5 6 6 6 6 5 5 5 5 5 6 7 11 10 9 8 5 4 5 5 6 4 4 4 5 4 3
4 4 5 5 4 2 2 2 2 2 1 2 3 4 5 5 5 5 5 5 6 6 6 6 5 5 6 7 7 6 5 6 4 3 4 6 6 5 5 4 4 4 4
3 4 4 5 5 3 2 3 1 4 2 3 4 4 4 4 4 5 4 5 5 4 4 4 5 5 5 7 10 7 6 5 5 4 4 4 5 5 5 5 5 5 5
4 5 5 6 5 4 3 2 2 2 3 4 4 3 3 2 3 4 4 6 5 6 8 9 7 4 6 8 11 11 12 12 11 7 5 5 5 5 5 5 5 5 5
Wind_Direction
12 21 10 356 349 346 338 326 318 258 197 169 177 165 168 164 149 147 150 146 112 93 109 124 125 103 100 126 267 294 153 186 245 20 7 333 285 244 180 210 228 184 144
2 11 7 2 357 350 345 336 332 315 276 191 174 172 164 160 155 135 115 106 104 98 106 116 127 132 129 169 241 262 211 233 217 157 138 295 302 287 224 191 204 219 161
2 3 2 2 358 354 347 336 329 318 296 222 167 157 144 138 128 124 116 107 108 106 99 117 141 168 174 196 225 232 216 214 235 213 170 183 223 259 271 215 196 207 184
360 360 360 0 356 355 350 343 338 333 325 282 181 172 163 160 159 147 131 118 112 119 124 127 174 192 198 205 219 223 215 206 218 230 219 214 198 183 264 293 229 203 199
358 359 359 359 355 353 348 347 345 345 341 346 261 162 141 135 127 125 122 116 108 110 122 127 201 231 225 225 226 231 220 210 212 215 216 230 245 229 199 246 281 275 233
358 356 357 359 357 356 352 352 356 357 357 10 45 113 126 130 132 130 131 121 110 94 84 137 217 230 227 231 231 229 223 214 214 217 216 207 210 215 212 216 231 243 259
358 355 356 0 359 360 0 1 9 11 13 29 54 92 112 121 131 138 142 137 131 160 202 214 224 231 229 229 223 214 221 220 215 214 215 214 219 214 208 215 226 232 255
357 357 359 3 1 3 5 4 13 20 23 37 55 72 89 100 108 120 136 141 150 186 204 211 222 230 224 228 212 210 220 225 216 220 213 207 222 210 198 200 204 233 246
357 360 5 9 8 10 10 13 20 25 28 37 55 66 74 83 96 107 116 134 178 205 210 218 207 212 208 222 192 193 208 217 220 231 232 214 220 214 211 205 190 191 217
359 4 9 12 16 15 13 19 21 24 29 36 44 61 66 73 82 95 103 111 258 246 221 221 209 193 176 184 163 190 150 196 195 189 248 235 220 216 212 209 209 197 199
1 11 16 16 15 16 17 20 19 22 23 30 38 46 49 55 55 48 24 343 299 271 263 249 230 178 165 166 156 184 159 217 224 198 215 225 210 193 209 210 213 209 196
10 15 16 17 17 18 19 22 22 25 22 23 29 33 35 34 27 359 320 309 282 260 257 259 251 146 130 146 153 164 160 194 215 214 207 212 197 203 211 212 220 216 206
15 16 16 18 16 20 21 21 20 19 18 21 25 29 26 24 12 353 344 334 318 310 301 296 82 94 103 126 144 172 189 200 205 201 206 198 173 203 204 209 214 219 224
12 20 17 15 19 23 23 23 20 20 25 25 22 24 26 17 6 352 350 2 0 357 359 1 12 93 135 121 261 239 203 218 197 205 191 124 106 77 48 169 204 206 214
18 20 20 14 22 28 23 24 26 30 34 34 28 24 24 20 16 12 12 15 9 6 3 4 13 26 31 30 23 2 356 348 12 315 89 95 99 93 76 64 35 27 46
20 14 16 15 22 30 29 30 32 38 43 41 31 24 27 27 21 21 24 15 15 11 6 12 23 27 33 31 26 9 349 338 331 315 143 146 147 142 142 137 118 81 58
20 11 8 11 19 25 31 50 44 40 40 42 39 29 29 29 24 23 21 15 20 21 16 18 23 33 36 23 13 5 338 320 323 324 323 122 122 152 170 182 187 182 175
15 5 360 9 13 18 31 53 58 50 42 35 38 36 33 30 26 25 19 14 19 22 21 21 18 25 28 17 5 351 316 300 303 314 340 45 90 63 46 68 198 172 174
10 355 351 11 14 14 25 44 50 48 43 37 37 37 35 31 26 23 16 13 13 16 20 21 18 20 25 16 6 353 309 301 308 348 32 53 73 58 37 9 13 61 109
9 354 352 14 13 13 27 40 46 43 37 33 37 39 42 40 33 22 12 9 12 11 16 21 22 28 26 20 15 6 342 339 347 31 64 63 71 56 35 14 26 41 12
15 2 355 4 3 8 33 44 42 42 42 37 38 37 32 44 46 27 14 12 14 17 20 22 23 33 32 17 17 13 9 355 2 40 58 56 60 57 42 38 47 41 352
20 5 346 344 355 10 28 56 47 34 46 49 52 55 47 37 38 35 24 21 16 20 23 22 21 21 29 23 10 16 22 13 35 46 50 56 58 59 52 54 45 19 3
17 356 333 330 351 31 34 45 59 21 37 54 64 61 64 64 42 33 31 27 23 20 19 19 19 20 21 13 9 15 26 33 47 56 60 61 60 59 64 50 33 24 29
9 350 337 341 351 18 50 66 29 316 303 85 85 77 61 62 57 36 34 38 22 15 13 16 17 21 27 14 2 2 18 29 41 59 66 60 51 51 54 48 36 42 42
360 348 339 335 334 357 37 92 40 322 348 63 74 88 85 81 83 69 43 41 52 31 15 7 17 20 22 6 7 19 18 13 24 35 46 44 40 40 38 37 36 35 34
1 360 353 339 334 357 8 91 101 329 10 58 55 68 93 86 107 119 98 54 56 47 47 43 41 56 33 15 20 24 27 33 40 52 50 45 43 43 40 37 34 33 29